sat.trackr.live / text

‹ back to catalog

STARLINK-30215

NORAD 57445 · 2023-105R

PAYLOAD ACTIVE UNKNOWN

§ Identity

Operator
Country
US
Launch date
2023-07-24
Launch site
AFETR
Launch vehicle
Mass (kg)
RCS (m²)

Purposes: comms

External: N2YO · Heavens-Above · Gunter

§ Orbital elements

Epoch: 2026-09-20T07:25:50.548512Z

Period
94.27 min
Inclination
43.0011°
Eccentricity
0.0001036
Mean motion
15.27579324 rev/d
Perigee alt
482.3 km
Apogee alt
483.8 km
Semi-major
6,861.2 km
B*
2.6752e-5
RAAN
240.9751°
Arg perigee
272.3767°
Mean anomaly
87.6966°
Rev number
17,518

§ Raw data

STARLINK-302151 57445U 23105R   26263.30961283  .00000474  00000+0  26752-4 0  99972 57445  43.0011 240.9751 0001036 272.3767  87.6966 15.27579324175187

JSON: /api/v1/satellites/57445 · /tle

For live sub-satellite position, see the globe view (requires WebGL).

§ Visibility from observer

Set your observer location to see the next 7 days of passes ≥ 10°. The values pass through the URL so the page stays shareable.

No JS? Fill the form by hand. The geolocation button needs JavaScript.